Fosston, MN

2:24 AM CDT on October 01, 2016 (GMT -0500)
Fosston Municipal

Weather History for KFSE - June, 2014

Change the Weather History Date:

Wednesday, June 11, 2014

  Actual Average Record
Temperature  
Mean Temperature 58 °F -  
Max Temperature 64 °F 75 °F 94 °F (1956)
Min Temperature 53 °F 49 °F 37 °F (1984)
Degree Days  
Heating Degree Days 6    
Growing Degree Days 8 (Base 50)    
Moisture  
Dew Point 55 °F    
Average Humidity 87    
Maximum Humidity 100    
Minimum Humidity 68    
Precipitation  
Precipitation 0.00 in - - ()
Sea Level Pressure  
Sea Level Pressure 29.79 in    
Wind  
Wind Speed 6 mph (NNE)    
Max Wind Speed 25 mph    
Max Gust Speed 29 mph    
Visibility 8 miles    
Events Rain , Thunderstorm    
Averages and records for this station are not official NWS values.
T = Trace of Precipitation, MM = Missing Value Source: NWS Daily Summary

Daily Weather History Graph

Daily Weather History Graph

Search for Another Location

Airport or City:

Trip Planner

Search our weather history database for the weather conditions in past years. The results will help you decide how hot, cold, wet, or windy it might be!

Date:

Astronomy

Jun. 11, 2014 Rise Set
Actual Time 5:25 AM CDT 9:20 PM CDT
Civil Twilight 4:44 AM CDT 10:00 PM CDT
Nautical Twilight 3:49 AM CDT 10:56 PM CDT
Astronomical Twilight 2:23 AM CDT 12:23 AM CDT
Moon 7:44 PM CDT (6/11) 4:24 AM CDT (6/11)
Length of Visible Light 17h 15m
Length of Day
15h 55m
Waxing Gibbous, 97% of the Moon is Illuminated
Jun 11
Waxing Gibbous
Jun 12
Full
Jun 19
Last Quarter
Jun 27
New
Jul 5
First Quarter

Hourly Weather History & Observations

Time (CDT) Temp. Dew Point Humidity Pressure Visibility Wind Dir Wind Speed Gust Speed Precip Events Conditions
12:15 AM 64.4 °F 53.6 °F 68% 29.83 in 10.0 mi Calm Calm - N/A Rain Light Rain
12:35 AM 64.4 °F 53.6 °F 68% 29.83 in 10.0 mi South 4.6 mph - N/A Rain Light Rain
12:55 AM 62.6 °F 53.6 °F 72% 29.84 in 10.0 mi Calm Calm - N/A   Light Drizzle
1:15 AM 62.6 °F 53.6 °F 72% 29.84 in 10.0 mi Calm Calm - N/A   Overcast
1:35 AM 62.6 °F 53.6 °F 72% 29.84 in 10.0 mi SSE 4.6 mph - N/A   Overcast
1:55 AM 62.6 °F 55.4 °F 77% 29.84 in 10.0 mi South 5.8 mph - N/A Rain Light Rain
2:15 AM 62.6 °F 53.6 °F 72% 29.83 in 10.0 mi SSE 5.8 mph - N/A   Overcast
2:35 AM 62.6 °F 55.4 °F 77% 29.84 in 10.0 mi South 4.6 mph - N/A Rain Light Rain
2:55 AM 60.8 °F 51.8 °F 72% 29.83 in 5.0 mi SE 4.6 mph - N/A Rain , Thunderstorm Light Thunderstorms and Rain
3:15 AM 60.8 °F 53.6 °F 77% 29.82 in 10.0 mi SSE 6.9 mph - N/A   Scattered Clouds
3:35 AM 62.6 °F 55.4 °F 77% 29.81 in 10.0 mi Calm Calm - N/A   Scattered Clouds
3:55 AM 60.8 °F 55.4 °F 82% 29.80 in 10.0 mi SSE 6.9 mph - N/A   Scattered Clouds
4:15 AM 60.8 °F 55.4 °F 82% 29.80 in 10.0 mi SSE 6.9 mph - N/A   Clear
4:35 AM 60.8 °F 55.4 °F 82% 29.80 in 10.0 mi SSE 5.8 mph - N/A   Mostly Cloudy
4:55 AM 60.8 °F 55.4 °F 82% 29.80 in 10.0 mi SSE 4.6 mph - N/A   Mostly Cloudy
5:15 AM 60.8 °F 55.4 °F 82% 29.80 in 10.0 mi Calm Calm - N/A   Overcast
5:35 AM 60.8 °F 55.4 °F 82% 29.80 in 10.0 mi Calm Calm - N/A   Scattered Clouds
5:55 AM 60.8 °F 53.6 °F 77% 29.80 in 10.0 mi Calm Calm - N/A   Mostly Cloudy
6:15 AM 60.8 °F 55.4 °F 82% 29.82 in 10.0 mi WNW 3.5 mph - N/A Rain Light Rain
6:35 AM 60.8 °F 55.4 °F 82% 29.82 in 10.0 mi Calm Calm - N/A   Light Drizzle
6:55 AM 60.8 °F 55.4 °F 82% 29.82 in 10.0 mi Calm Calm - N/A   Drizzle
7:16 AM 60.8 °F 55.4 °F 82% 29.82 in 7.0 mi Calm Calm - N/A Rain Light Rain
7:35 AM 60.8 °F 55.4 °F 82% 29.82 in 5.0 mi Calm Calm - N/A Rain Light Rain
7:55 AM 60.8 °F 55.4 °F 82% 29.82 in 5.0 mi Calm Calm - N/A Rain Light Rain
8:16 AM 60.8 °F 55.4 °F 82% 29.81 in 7.0 mi Calm Calm - N/A Rain , Thunderstorm Light Thunderstorms and Rain
8:35 AM 60.8 °F 55.4 °F 82% 29.81 in 7.0 mi Calm Calm - N/A Rain Light Rain
8:55 AM 62.6 °F 57.2 °F 82% 29.81 in 10.0 mi NNE 4.6 mph - N/A   Light Drizzle
9:35 AM 60.8 °F 57.2 °F 88% 29.81 in 10.0 mi Calm Calm - N/A   Overcast
9:55 AM 62.6 °F 57.2 °F 82% 29.81 in 10.0 mi NNE 6.9 mph - N/A Rain Light Rain
10:15 AM 60.8 °F 57.2 °F 88% 29.81 in 10.0 mi NNE 8.1 mph - N/A   Light Drizzle
10:35 AM 60.8 °F 57.2 °F 88% 29.81 in 10.0 mi NNE 11.5 mph - N/A   Light Drizzle
10:55 AM 60.8 °F 55.4 °F 82% 29.80 in 10.0 mi NNE 16.1 mph - N/A   Overcast
11:15 AM 60.8 °F 55.4 °F 82% 29.80 in 10.0 mi NNE 11.5 mph 17.3 mph N/A   Overcast
11:35 AM 60.8 °F 55.4 °F 82% 29.81 in 10.0 mi NNE 6.9 mph - N/A Rain Light Rain
11:55 AM 59.0 °F 55.4 °F 88% 29.81 in 10.0 mi NNE 9.2 mph - N/A   Overcast
12:15 PM 59.0 °F 55.4 °F 88% 29.81 in 10.0 mi NNE 9.2 mph - N/A   Overcast
12:35 PM 57.2 °F 55.4 °F 94% 29.80 in 10.0 mi NNE 13.8 mph - N/A   Overcast
12:55 PM 57.2 °F 55.4 °F 94% 29.80 in 10.0 mi NE 12.7 mph 17.3 mph N/A   Overcast
1:15 PM 57.2 °F 53.6 °F 88% 29.80 in 5.0 mi NE 9.2 mph 18.4 mph N/A Rain Rain
1:35 PM 57.2 °F 53.6 °F 88% 29.79 in 7.0 mi ENE 11.5 mph 17.3 mph N/A   Drizzle
1:55 PM 57.2 °F 55.4 °F 94% 29.79 in 4.0 mi NE 11.5 mph 17.3 mph N/A Rain Rain
2:15 PM 57.2 °F 55.4 °F 94% 29.79 in 7.0 mi NE 9.2 mph 17.3 mph N/A Rain Rain
2:35 PM 57.2 °F 55.4 °F 94% 29.79 in 7.0 mi ENE 10.4 mph 19.6 mph N/A Rain Light Rain
2:55 PM 57.2 °F 53.6 °F 88% 29.79 in 2.0 mi ENE 9.2 mph 18.4 mph N/A Rain Rain
3:15 PM 55.4 °F 53.6 °F 94% 29.79 in 4.0 mi ENE 9.2 mph - N/A Rain Rain
3:35 PM 57.2 °F 55.4 °F 94% 29.78 in 5.0 mi NE 9.2 mph - N/A Rain Rain
3:55 PM 57.2 °F 55.4 °F 94% 29.78 in 4.0 mi NE 10.4 mph - N/A Rain Rain
4:15 PM 57.2 °F 55.4 °F 94% 29.78 in 7.0 mi NE 6.9 mph - N/A   Drizzle
4:35 PM 57.2 °F 55.4 °F 94% 29.78 in 5.0 mi NE 9.2 mph - N/A   Drizzle
4:55 PM 55.4 °F 53.6 °F 94% 29.78 in 4.0 mi NE 8.1 mph 16.1 mph N/A   Drizzle
5:15 PM 55.4 °F 53.6 °F 94% 29.78 in 5.0 mi NE 8.1 mph - N/A   Drizzle
5:35 PM 57.2 °F 55.4 °F 94% 29.77 in 7.0 mi NNE 10.4 mph - N/A   Light Drizzle
5:55 PM 57.2 °F 55.4 °F 94% 29.77 in 7.0 mi NNE 8.1 mph - N/A   Light Drizzle
6:15 PM 55.4 °F 53.6 °F 94% 29.77 in 5.0 mi NE 10.4 mph - N/A   Light Drizzle
6:35 PM 55.4 °F 53.6 °F 94% 29.77 in 7.0 mi NNE 9.2 mph - N/A   Light Drizzle
6:55 PM 55.4 °F 53.6 °F 94% 29.76 in 10.0 mi NNE 12.7 mph 18.4 mph N/A Rain Light Rain
7:15 PM 55.4 °F 55.4 °F 100% 29.74 in 10.0 mi NNE 11.5 mph 20.7 mph N/A   Overcast
7:35 PM 55.4 °F 53.6 °F 94% 29.73 in 10.0 mi North 11.5 mph - N/A   Overcast
7:55 PM 55.4 °F 53.6 °F 94% 29.76 in 10.0 mi North 10.4 mph - N/A   Overcast
8:15 PM 55.4 °F 53.6 °F 94% 29.76 in 10.0 mi North 12.7 mph - N/A   Overcast
8:35 PM 55.4 °F 53.6 °F 94% 29.76 in 10.0 mi North 15.0 mph - N/A Rain Light Rain
8:55 PM 55.4 °F 53.6 °F 94% 29.76 in 7.0 mi NNW 11.5 mph - N/A Rain Rain
9:15 PM 53.6 °F 53.6 °F 100% 29.76 in 5.0 mi NNW 16.1 mph - N/A Rain Light Rain
9:35 PM 53.6 °F 53.6 °F 100% 29.76 in 10.0 mi NNW 16.1 mph - N/A   Drizzle
9:55 PM 53.6 °F 53.6 °F 100% 29.77 in 10.0 mi NNW 17.3 mph - N/A   Light Drizzle
10:15 PM 53.6 °F 51.8 °F 94% 29.76 in 5.0 mi NNW 23.0 mph 27.6 mph N/A   Light Drizzle
10:35 PM 53.6 °F 51.8 °F 94% 29.75 in 7.0 mi NNW 25.3 mph - N/A   Drizzle
10:55 PM 53.6 °F 51.8 °F 94% 29.76 in 10.0 mi NNW 23.0 mph 28.8 mph N/A   Drizzle
11:15 PM 53.6 °F 51.8 °F 94% 29.77 in 10.0 mi NNW 20.7 mph 27.6 mph N/A   Light Drizzle
11:35 PM 53.6 °F 51.8 °F 94% 29.78 in 7.0 mi NW 16.1 mph - N/A Rain Rain
11:55 PM 53.6 °F 51.8 °F 94% 29.77 in 4.0 mi NW 21.9 mph 27.6 mph N/A Rain Rain